Location: Belfast
(54.5830°N, 5.9330°W)
Time: 16:58:29
(UTC+00:00)

Coronas F rocket - Visible Passes

Search period start: 19 January 2017 00:00
Search period end: 29 January 2017 00:00
Orbit: 278 x 287 km, 82.5° (Epoch: 18 January)

Date Brightness Start Highest point End Pass type
(mag) Time Alt. Az. Time Alt. Az. Time Alt. Az.
19 Jan 4.5 05:39:06 13° ENE 05:39:06 13° ENE 05:40:05 10° E visible
19 Jan 2.1 07:09:22 24° WNW 07:09:45 25° W 07:11:49 10° SSW visible
20 Jan 4.3 05:43:20 16° E 05:43:20 16° E 05:44:19 10° ESE visible
20 Jan 2.7 07:13:36 18° W 07:13:36 18° W 07:15:06 10° SW visible
21 Jan 4.1 05:47:33 16° ESE 05:47:33 16° ESE 05:48:15 10° SE visible
21 Jan 3.4 07:17:49 11° WSW 07:17:49 11° WSW 07:18:04 10° WSW visible
22 Jan 4.2 05:51:44 12° SE 05:51:44 12° SE 05:51:58 10° SSE visible
25 Jan 4.1 19:11:25 10° SSW 19:11:28 10° SSW 19:11:28 10° SSW visible
26 Jan 3.4 19:14:33 10° SSW 19:15:33 21° SW 19:15:33 21° SW visible
27 Jan 3.2 17:48:18 10° ESE 17:49:11 12° E 17:49:11 12° E visible
27 Jan 3.2 19:17:40 10° SW 19:19:26 27° W 19:19:26 27° W visible
28 Jan 2.8 17:50:24 10° SE 17:51:58 16° E 17:52:54 13° ENE visible
28 Jan 3.6 19:20:47 10° SW 19:22:43 21° WNW 19:23:08 20° NW visible
